[ ตารางข้อมูล ] [ Min-Max ] [ วันนี้4 ] [ วันนี้2 ] [ เทียบ3วัน A ] [ เทียบ4วัน B ]   

วันนี้2   [ ◀ ช่วงเก่ากว่า ] [ ช่วงที่ 222 ] [ ช่วงใหม่กว่า ▶ ] [ ล่าสุด ]    [ 3 ชั่วโมง ] [ 6 ชั่วโมง ] [ 12 ชั่วโมง ] [ 24 ชั่วโมง ]   วันนี้2

อุณภูมิตู้ Knockdown4529  ราย 6 ชั่วโมง  ที่วัดได้ ในช่วงวันเวลา 11/03/2026 (09:19) ถึง 11/03/2026 (15:19) 
ความชื้นในตู้ Knockdown4529  ราย 6 ชั่วโมง  ที่วัดได้ ในช่วงวันเวลา 11/03/2026 (09:19) ถึง 11/03/2026 (15:19) 

 
DS18B20SHTC3 
IDDate d/m/Y & Timedata1
สูง
data2
ต่ำ
data3
นอก
temp
pcb
hum
pcb
Time
 1505  11/03/2026 15:19:01  31.1  30.8  30.9  30.7  67.5  15:19 
 1504  11/03/2026 15:14:20  31.1  30.8  30.8  30.8  67.3  15:14 
 1503  11/03/2026 15:09:38  31.2  30.8  31.0  30.7  67.4  15:09 
 1502  11/03/2026 15:04:56  31.2  30.8  30.9  30.7  67.4  15:04 
 1501  11/03/2026 15:00:14  31.2  30.8  30.7  30.6  67.3  15:00 
 1500  11/03/2026 14:55:33  31.2  30.8  31.1  30.8  67.3  14:55 
 1499  11/03/2026 14:50:51  31.2  30.8  31.0  30.9  67.2  14:50 
 1498  11/03/2026 14:46:09  31.2  30.8  30.9  30.7  67.0  14:46 
 1497  11/03/2026 14:41:27  31.2  30.8  31.4  30.8  67.1  14:41 
 1496  11/03/2026 14:36:46  31.2  30.8  31.2  30.7  67.1  14:36 
 1495  11/03/2026 14:32:03  31.2  30.8  31.2  30.6  67.0  14:32 
 1494  11/03/2026 14:27:21  31.2  30.7  31.0  30.7  67.0  14:27 
 1493  11/03/2026 14:22:40  31.2  30.7  31.1  30.6  67.0  14:22 
 1492  11/03/2026 14:17:58  31.1  30.7  31.5  30.5  67.0  14:17 
 1491  11/03/2026 14:13:17  31.1  30.7  31.2  30.7  67.0  14:13 
 1490  11/03/2026 14:08:35  31.1  30.6  30.9  30.8  66.8  14:08 
 1489  11/03/2026 14:03:52  31.1  30.6  31.4  30.6  66.8  14:03 
 1488  11/03/2026 13:59:11  31.1  30.6  31.9  30.6  66.8  13:59 
 1487  11/03/2026 13:54:29  31.1  30.6  31.4  30.6  66.9  13:54 
 1486  11/03/2026 13:49:47  31.0  30.5  31.4  30.6  66.9  13:49 
 1485  11/03/2026 13:45:05  30.9  30.5  31.6  30.4  66.9  13:45 
 1484  11/03/2026 13:40:23  30.9  30.4  31.1  30.5  66.9  13:40 
 1483  11/03/2026 13:35:41  30.9  30.4  31.1  30.4  67.0  13:35 
 1482  11/03/2026 13:30:59  30.9  30.4  31.4  30.5  67.0  13:30 

Data every 5 minute.


ใช้เวลาประมวลผล 0.00409 วินาที